Tracking 35275 objects as of 8-Sep-2026
HD Live streaming from Space Station
objects crossing your sky now

QIANFAN-48

Track QIANFAN-48 now!
10-day predictions
QIANFAN-48 is classified as:


NORAD ID: 62249
Int'l Code: 2024-232N
Launch date: December 5, 2024
Source: People's Republic of China (PRC)
Launch site: Taiyaun Space Center, China (TSC)
Your satellite tracking list
Your tracking list is empty




NASA's NSSDC Master Catalog

Two Line Element Set (TLE):
1 62249U 24232N   26250.92351081  .00000076  00000-0  98507-4 0  9996
2 62249  89.0149  14.2043 0018631 139.1298 221.1254 13.51021448135591
Source of the keplerian elements: AFSPC